Weather History for Kansas City, MO

Change the Weather History Date:

Saturday, January 19, 2013

  Actual Average Record
Temperature  
Mean Temperature 53 °F -  
Max Temperature 62 °F 37 °F 63 °F (2014)
Min Temperature 42 °F 21 °F 1 °F (2008)
Degree Days  
Heating Degree Days 12    
Growing Degree Days 3 (Base 50)    
Moisture  
Dew Point 28 °F    
Average Humidity 43    
Maximum Humidity 58    
Minimum Humidity 25    
Precipitation  
Precipitation 0.00 in - - ()
Sea Level Pressure  
Sea Level Pressure 30.06 in    
Wind  
Wind Speed 12 mph (West)    
Max Wind Speed 17 mph    
Max Gust Speed 28 mph    
Visibility 10 miles    
Events      
Averages and records for this station are not official NWS values.
T = Trace of Precipitation, MM = Missing Value Source: NWS Daily Summary

Daily Weather History Graph

Daily Weather History Graph

Search for Another Location

Airport:

Trip Planner

Search our weather history database for the weather conditions in past years. The results will help you decide how hot, cold, wet, or windy it might be!

Date:

Astronomy

Jan. 19, 2013 Rise Set
Actual Time 7:34 AM CST 5:24 PM CST
Civil Twilight 7:05 AM CST 5:53 PM CST
Nautical Twilight 6:32 AM CST 6:26 PM CST
Astronomical Twilight 6:00 AM CST 6:58 PM CST
Moon 11:50 AM CST 1:09 AM CST
Length of Visible Light 10h 48m
Length of Day
9h 50m
First Quarter, 57% of the Moon is Illuminated
Jan 19
First Quarter
Jan 26
Full
Feb 3
Last Quarter
Feb 10
New
Feb 17
First Quarter

Hourly Weather History & Observations

Time (CST) Temp. Windchill Dew Point Humidity Pressure Visibility Wind Dir Wind Speed Gust Speed Precip Events Conditions
12:54 AM 48.0 °F - 28.9 °F 48% 30.01 in 10.0 mi SSW 15.0 mph 23.0 mph N/A   Clear
1:54 AM 48.0 °F - 28.9 °F 48% 30.02 in 10.0 mi SW 10.4 mph - N/A   Clear
2:54 AM 46.9 °F - 28.9 °F 50% 30.02 in 10.0 mi SW 17.3 mph 21.9 mph N/A   Clear
3:54 AM 46.9 °F - 28.9 °F 50% 29.99 in 10.0 mi SW 16.1 mph 27.6 mph N/A   Clear
4:54 AM 46.0 °F 39.0 °F 28.9 °F 51% 29.98 in 10.0 mi SW 17.3 mph 26.5 mph N/A   Clear
5:54 AM 45.0 °F 38.5 °F 30.0 °F 56% 29.97 in 10.0 mi SW 13.8 mph 25.3 mph N/A   Clear
6:54 AM 45.0 °F 38.9 °F 30.0 °F 56% 29.98 in 10.0 mi SW 12.7 mph 20.7 mph N/A   Clear
7:54 AM 44.1 °F 38.6 °F 30.0 °F 58% 29.99 in 10.0 mi SW 10.4 mph - N/A   Clear
8:54 AM 45.0 °F 38.9 °F 30.0 °F 56% 30.00 in 10.0 mi SW 12.7 mph - N/A   Clear
9:54 AM 46.9 °F - 30.0 °F 52% 30.02 in 10.0 mi SW 10.4 mph 19.6 mph N/A   Clear
10:54 AM 51.1 °F - 30.0 °F 44% 30.04 in 10.0 mi WSW 13.8 mph - N/A   Clear
11:54 AM 55.0 °F - 28.9 °F 37% 30.03 in 10.0 mi WSW 10.4 mph - N/A   Clear
12:54 PM 57.0 °F - 28.0 °F 33% 30.00 in 10.0 mi WSW 8.1 mph - N/A   Clear
1:54 PM 60.1 °F - 26.1 °F 27% 29.99 in 10.0 mi WNW 8.1 mph - N/A   Clear
2:54 PM 61.0 °F - 26.1 °F 26% 29.99 in 10.0 mi West 10.4 mph 17.3 mph N/A   Clear
3:54 PM 62.1 °F - 26.1 °F 25% 30.00 in 10.0 mi WSW 6.9 mph - N/A   Clear
4:54 PM 61.0 °F - 25.0 °F 25% 30.04 in 10.0 mi WNW 13.8 mph 23.0 mph N/A   Clear
5:54 PM 57.0 °F - 25.0 °F 29% 30.07 in 10.0 mi WNW 10.4 mph - N/A   Clear
6:54 PM 54.0 °F - 26.1 °F 34% 30.12 in 10.0 mi NNW 10.4 mph 16.1 mph N/A   Clear
7:54 PM 52.0 °F - 27.0 °F 38% 30.16 in 10.0 mi North 11.5 mph 19.6 mph N/A   Clear
8:54 PM 48.9 °F - 28.0 °F 44% 30.19 in 10.0 mi NNW 5.8 mph - N/A   Clear
9:54 PM 46.0 °F 42.5 °F 28.0 °F 50% 30.22 in 10.0 mi North 6.9 mph - N/A   Clear
10:54 PM 45.0 °F 41.8 °F 26.1 °F 48% 30.25 in 10.0 mi NNW 5.8 mph - N/A   Clear
11:54 PM 42.8 °F 38.6 °F 26.6 °F 53% 30.25 in 10.0 mi North 6.9 mph - N/A   Clear